STARLINK-34465

Last updated on Thu Jul 03 2025 00:02:07 GMT+0000 (Coordinated Universal Time)

1 64438U 25130A 25183.58335648 -.01062234 00000+0 -73942-2 0 9993 2 64438 53.1555 179.8157 0001100 65.5495 34.9362 15.76157219 3515
UTC large
Height (km)
Speed (km/s)
/
Latitude / Longitude
Inclination (degrees)
Orbital Period (minutes)
Azimuth
Elevation
Range (km)
Doppler Factor

Next 0 passes for location: London (51.5072 / 0.1276)

Sorry there are no passes over London.